Regional Weather Roundup
Issued by NWS

Home | Current Version | Previous Version | Text Only | Print | Product List | Glossary Off
Versions: 1 2 3 4 5 6 7 8 9 10 11 12 13 14 15 16 17 18 19 20 21 22 23 24 25 26 27 28 29 30 31 32 33 34 35 36 37 38 39 40 41 42 43 44 45 46 47 48 49 50

000
ASUS43 KLMK 241810
RWRKY
KENTUCKY REGIONAL WEATHER ROUNDUP
NATIONAL WEATHER SERVICE LOUISVILLE KY
200 PM EDT SAT JUN 24 2017

NOTE "FAIR" INDICATES FEW OR NO CLOUDS BELOW 12,000 FEET
WITH NO SIGNIFICANT WEATHER AND/OR OBSTRUCTIONS TO VISIBILITY.

KYZ001>023-026-027-061>063-070>075-241900-
WESTERN AND SOUTH CENTRAL KENTUCKY

CITY           SKY/WX    TMP DP  RH WIND       PRES   REMARKS
PADUCAH        MOSUNNY   79  59  50 NW10      30.09F
HENDERSON      MOSUNNY   77  59  53 NW10      30.08F
OWENSBORO      MOSUNNY   79  58  48 NW12G18   30.07S
HOPKINSVILLE   CLOUDY    75  59  57 W7        30.08S
BOWLING GREEN  SUNNY     77  60  55 NW8       30.07S
GLASGOW        CLOUDY    76  59  54 W5        30.07S
$$

KYZ024-025-028>034-038-045-046-053-241900-
NORTH CENTRAL KENTUCKY

CITY           SKY/WX    TMP DP  RH WIND       PRES   REMARKS
LOUISVILLE/SDF MOSUNNY   80  58  46 W9G18     30.03S
LOUISVILLE/LOU MOSUNNY   80  57  45 W15       30.03F
FORT KNOX      MOSUNNY   77  59  54 W13       30.03F
$$

KYZ035>037-039>044-047>052-055>060-089>105-241900-
NORTHEAST KENTUCKY

CITY           SKY/WX    TMP DP  RH WIND       PRES   REMARKS
LEXINGTON      SUNNY     77  56  48 W9        30.04R
COVINGTON      MOSUNNY   76  58  53 W9        30.01S
FRANKFORT      SUNNY     78  56  46 NW12      30.02S
$$

KYZ054-064>069-076>088-106>120-241900-
SOUTHEAST KENTUCKY

CITY           SKY/WX    TMP DP  RH WIND       PRES   REMARKS
JACKSON        CLOUDY    78  60  53 VRB5      30.05R
LONDON         PTSUNNY   79  57  46 W10       30.05S
SOMERSET       MOSUNNY   77  59  53 NW6       30.06S
MIDDLESBORO    SUNNY     82  60  47 NW7       30.04S
MONTICELLO     CLOUDY    79  64  60 NW8G18    30.07S
$$





USA.gov is the U.S. government's official web portal to all federal, state and local government web resources and services.